| time (UTC) | temp F | wind direction | speed knots | gust knots | rain 1hr in | rain 24hr in | rain mn in | humidity % | barometer mb |
| 20260504070327 | 52 | 4 | 0.9 | 1.7 | 0.00 | 0.00 | 0.00 | 53 | 1008.8 |
| 20260504050327 | 52 | 141 | 0.0 | 0.9 | 0.00 | 0.00 | 0.00 | 58 | 1009.0 |
| 20260504045828 | 52 | 174 | 0.0 | 0.9 | 0.00 | 0.00 | 0.00 | 59 | 1009.0 |
| 20260504045327 | 51 | 128 | 0.0 | 0.9 | 0.00 | 0.00 | 0.00 | 58 | 1009.0 |
| 20260504044827 | 51 | 13 | 0.0 | 1.7 | 0.00 | 0.00 | 0.00 | 61 | 1009.0 |
| 20260504044329 | 51 | 210 | 0.0 | 1.7 | 0.00 | 0.00 | 0.00 | 60 | 1009.1 |
| 20260504043827 | 51 | 327 | 0.9 | 1.7 | 0.00 | 0.00 | 0.00 | 61 | 1009.1 |
| 20260504043327 | 51 | 11 | 0.9 | 0.9 | 0.00 | 0.00 | 0.00 | 59 | 1009.1 |
| 20260504042828 | 51 | 54 | 0.9 | 0.9 | 0.00 | 0.00 | 0.00 | 61 | 1009.1 |
| 20260504042327 | 51 | 289 | 0.9 | 0.9 | 0.00 | 0.00 | 0.00 | 61 | 1009.1 |
| 20260504041827 | 50 | 264 | 0.0 | 0.9 | 0.00 | 0.00 | 0.00 | 63 | 1009.2 |
| 20260504041327 | 50 | 210 | 0.9 | 1.7 | 0.00 | 0.00 | 0.00 | 64 | 1009.2 |
| 20260504040827 | 50 | 231 | 0.0 | 0.9 | 0.00 | 0.00 | 0.00 | 65 | 1009.2 |
| 20260504040327 | 50 | 228 | 0.0 | 0.9 | 0.00 | 0.00 | 0.00 | 67 | 1009.4 |
| 20260504035827 | 50 | 239 | 0.0 | 0.9 | 0.00 | 0.00 | 0.01 | 66 | 1009.4 |
| 20260504035327 | 50 | 261 | 0.0 | 0.9 | 0.00 | 0.00 | 0.01 | 66 | 1009.4 |
| 20260504034827 | 50 | 255 | 0.9 | 1.7 | 0.00 | 0.00 | 0.01 | 70 | 1009.5 |
| 20260504034327 | 50 | 243 | 0.9 | 0.9 | 0.00 | 0.00 | 0.01 | 67 | 1009.5 |
| 20260504033827 | 50 | 168 | 0.0 | 0.9 | 0.00 | 0.00 | 0.01 | 68 | 1009.6 |
| 20260504033328 | 50 | 207 | 0.9 | 0.9 | 0.00 | 0.00 | 0.01 | 67 | 1009.8 |
| 20260504032827 | 50 | 264 | 0.0 | 0.9 | 0.00 | 0.00 | 0.01 | 69 | 1009.7 |
| 20260504032327 | 50 | 329 | 0.0 | 0.9 | 0.00 | 0.00 | 0.01 | 68 | 1009.7 |
| 20260504031828 | 50 | 10 | 0.0 | 0.0 | 0.00 | 0.00 | 0.01 | 69 | 1009.7 |
| 20260504031327 | 50 | 250 | 0.0 | 0.9 | 0.00 | 0.00 | 0.01 | 69 | 1009.7 |
| 20260504030827 | 50 | 291 | 0.0 | 0.9 | 0.00 | 0.00 | 0.01 | 68 | 1009.8 |
| 20260504030327 | 50 | 237 | 0.0 | 0.9 | 0.01 | 0.00 | 0.01 | 68 | 1009.8 |
| 20260504025827 | 50 | 238 | 0.0 | 0.9 | 0.01 | 0.00 | 0.01 | 69 | 1009.9 |
| 20260504025327 | 51 | 185 | 0.0 | 0.9 | 0.01 | 0.00 | 0.01 | 68 | 1009.9 |
| 20260504024827 | 51 | 142 | 0.0 | 0.9 | 0.01 | 0.00 | 0.01 | 67 | 1010.0 |
| 20260504024327 | 51 | 240 | 0.9 | 1.7 | 0.01 | 0.00 | 0.01 | 66 | 1010.0 |
| 20260504023827 | 51 | 264 | 0.0 | 1.7 | 0.01 | 0.00 | 0.01 | 66 | 1010.1 |
| 20260504023327 | 51 | 248 | 1.7 | 5.2 | 0.01 | 0.00 | 0.01 | 67 | 1010.2 |
| 20260504022827 | 51 | 257 | 0.9 | 1.7 | 0.01 | 0.00 | 0.01 | 67 | 1010.3 |
| 20260504022327 | 51 | 248 | 1.7 | 2.6 | 0.01 | 0.00 | 0.01 | 67 | 1010.4 |
| 20260504021829 | 51 | 254 | 1.7 | 5.2 | 0.01 | 0.00 | 0.01 | 68 | 1010.5 |
| 20260504021327 | 51 | 258 | 3.5 | 7.8 | 0.01 | 0.00 | 0.01 | 70 | 1010.6 |
| 20260504020827 | 51 | 226 | 1.7 | 3.5 | 0.00 | 0.00 | 0.01 | 70 | 1010.8 |
| 20260504020328 | 52 | 287 | 1.7 | 4.3 | 0.00 | 0.00 | 0.00 | 69 | 1011.1 |
| 20260504015827 | 53 | 268 | 2.6 | 5.2 | 0.00 | 0.00 | 0.00 | 66 | 1011.2 |
| 20260504015328 | 53 | 353 | 1.7 | 2.6 | 0.00 | 0.00 | 0.00 | 60 | 1011.2 |
| 20260504014827 | 54 | 229 | 1.7 | 3.5 | 0.00 | 0.00 | 0.00 | 57 | 1010.8 |
| 20260504014327 | 54 | 265 | 4.3 | 7.8 | 0.00 | 0.00 | 0.00 | 56 | 1010.5 |
| 20260504013827 | 54 | 256 | 1.7 | 2.6 | 0.00 | 0.00 | 0.00 | 55 | 1010.5 |
| 20260504013328 | 54 | 280 | 1.7 | 3.5 | 0.00 | 0.00 | 0.00 | 54 | 1010.4 |
| 20260504012828 | 55 | 353 | 1.7 | 3.5 | 0.00 | 0.00 | 0.00 | 53 | 1010.2 |
| 20260504012328 | 55 | 272 | 1.7 | 3.5 | 0.00 | 0.00 | 0.00 | 52 | 1010.2 |
| 20260504011827 | 55 | 268 | 2.6 | 6.1 | 0.00 | 0.00 | 0.00 | 52 | 1010.1 |
| 20260504011327 | 55 | 251 | 2.6 | 3.5 | 0.00 | 0.00 | 0.00 | 51 | 1010.0 |
| 20260504010827 | 55 | 261 | 4.3 | 7.8 | 0.00 | 0.00 | 0.00 | 50 | 1009.9 |
| 20260504010327 | 55 | 279 | 1.7 | 4.3 | 0.00 | 0.00 | 0.00 | 50 | 1009.9 |
| 20260504005827 | 55 | 225 | 4.3 | 7.0 | 0.00 | 0.00 | 0.00 | 49 | 1009.7 |
| 20260504005328 | 54 | 263 | 1.7 | 5.2 | 0.00 | 0.00 | 0.00 | 50 | 1009.7 |
| 20260504004827 | 54 | 253 | 4.3 | 9.6 | 0.00 | 0.00 | 0.00 | 50 | 1009.7 |
| 20260504004327 | 53 | 244 | 0.0 | 1.7 | 0.00 | 0.00 | 0.00 | 54 | 1009.8 |
| 20260504003827 | 53 | 282 | 0.9 | 1.7 | 0.00 | 0.00 | 0.00 | 51 | 1009.5 |
| 20260504003327 | 52 | 283 | 1.7 | 4.3 | 0.00 | 0.00 | 0.00 | 55 | 1009.7 |
| 20260504002828 | 52 | 159 | 0.0 | 1.7 | 0.00 | 0.00 | 0.00 | 55 | 1009.7 |
| 20260504002328 | 52 | 20 | 0.9 | 1.7 | 0.00 | 0.00 | 0.00 | 57 | 1009.6 |
| 20260504001827 | 52 | 302 | 0.9 | 1.7 | 0.00 | 0.00 | 0.00 | 58 | 1009.6 |
| 20260504001327 | 53 | 176 | 0.9 | 0.9 | 0.00 | 0.00 | 0.00 | 55 | 1009.6 |
| 20260504000827 | 53 | 217 | 0.0 | 0.9 | 0.00 | 0.00 | 0.00 | 56 | 1009.7 |
| 20260504000327 | 53 | 265 | 0.9 | 0.9 | 0.00 | 0.00 | 0.00 | 54 | 1009.7 |
| 20260503235827 | 53 | 35 | 0.0 | 0.9 | 0.00 | 0.00 | 0.00 | 54 | 1009.6 |
| 20260503235327 | 53 | 221 | 2.6 | 4.3 | 0.00 | 0.00 | 0.00 | 52 | 1009.7 |
| 20260503234827 | 54 | 354 | 0.9 | 1.7 | 0.00 | 0.00 | 0.00 | 52 | 1009.8 |
| 20260503234327 | 54 | 263 | 1.7 | 4.3 | 0.00 | 0.00 | 0.00 | 51 | 1009.9 |
| 20260503233827 | 54 | 230 | 2.6 | 4.3 | 0.00 | 0.00 | 0.00 | 51 | 1009.9 |
| 20260503233327 | 54 | 218 | 1.7 | 3.5 | 0.00 | 0.00 | 0.00 | 50 | 1010.1 |
| 20260503232827 | 54 | 265 | 3.5 | 7.0 | 0.00 | 0.00 | 0.00 | 49 | 1010.0 |
| 20260503232327 | 54 | 266 | 3.5 | 7.0 | 0.00 | 0.00 | 0.00 | 47 | 1009.9 |
| 20260503231827 | 54 | 11 | 1.7 | 2.6 | 0.00 | 0.00 | 0.00 | 48 | 1009.9 |
| 20260503231328 | 54 | 40 | 1.7 | 3.5 | 0.00 | 0.00 | 0.00 | 48 | 1009.8 |
| 20260503230827 | 54 | 288 | 1.7 | 2.6 | 0.00 | 0.00 | 0.00 | 48 | 1009.9 |
| 20260503230327 | 54 | 247 | 0.9 | 2.6 | 0.00 | 0.00 | 0.00 | 47 | 1009.8 |
| 20260503225827 | 55 | 265 | 0.9 | 1.7 | 0.00 | 0.00 | 0.00 | 48 | 1009.7 |
| 20260503225327 | 55 | 287 | 1.7 | 3.5 | 0.00 | 0.00 | 0.00 | 46 | 1009.6 |
| 20260503224827 | 55 | 273 | 1.7 | 3.5 | 0.00 | 0.00 | 0.00 | 46 | 1009.6 |
| 20260503224327 | 55 | 277 | 0.9 | 2.6 | 0.00 | 0.00 | 0.00 | 47 | 1009.5 |
| 20260503223828 | 56 | 265 | 1.7 | 4.3 | 0.00 | 0.00 | 0.00 | 46 | 1009.5 |
| 20260503223327 | 56 | 193 | 0.9 | 1.7 | 0.00 | 0.00 | 0.00 | 45 | 1009.6 |
| 20260503222827 | 56 | 0 | 0.0 | 0.9 | 0.00 | 0.00 | 0.00 | 44 | 1009.5 |
| 20260503222327 | 56 | 255 | 1.7 | 5.2 | 0.00 | 0.00 | 0.00 | 47 | 1009.4 |
| 20260503221827 | 56 | 290 | 1.7 | 1.7 | 0.00 | 0.00 | 0.00 | 45 | 1009.4 |
| 20260503221327 | 55 | 210 | 3.5 | 7.0 | 0.00 | 0.00 | 0.00 | 46 | 1009.5 |
| 20260503220827 | 55 | 261 | 0.9 | 1.7 | 0.00 | 0.00 | 0.00 | 46 | 1009.7 |
| 20260503220327 | 55 | 260 | 0.9 | 2.6 | 0.00 | 0.00 | 0.00 | 47 | 1009.7 |
| 20260503215829 | 56 | 237 | 1.7 | 3.5 | 0.00 | 0.00 | 0.00 | 48 | 1009.7 |
| 20260503215327 | 56 | 327 | 0.9 | 1.7 | 0.00 | 0.00 | 0.00 | 47 | 1009.7 |
| 20260503214827 | 56 | 297 | 1.7 | 2.6 | 0.00 | 0.00 | 0.00 | 47 | 1009.6 |
| 20260503214328 | 56 | 240 | 3.5 | 5.2 | 0.00 | 0.00 | 0.00 | 46 | 1009.6 |
| 20260503213827 | 55 | 334 | 0.9 | 1.7 | 0.00 | 0.00 | 0.00 | 49 | 1009.6 |
| 20260503213327 | 55 | 223 | 1.7 | 2.6 | 0.00 | 0.00 | 0.00 | 48 | 1009.6 |
| 20260503212827 | 55 | 286 | 1.7 | 3.5 | 0.00 | 0.00 | 0.00 | 48 | 1009.7 |
| 20260503212328 | 56 | 0 | 1.7 | 4.3 | 0.00 | 0.00 | 0.00 | 47 | 1009.6 |
| 20260503211827 | 56 | 345 | 1.7 | 4.3 | 0.00 | 0.00 | 0.00 | 47 | 1009.6 |
| 20260503211327 | 57 | 251 | 1.7 | 2.6 | 0.00 | 0.00 | 0.00 | 47 | 1009.6 |
| 20260503210827 | 57 | 273 | 2.6 | 5.2 | 0.00 | 0.00 | 0.00 | 46 | 1009.3 |
| 20260503210327 | 56 | 293 | 1.7 | 2.6 | 0.00 | 0.00 | 0.00 | 47 | 1009.4 |
| 20260503205827 | 56 | 261 | 4.3 | 7.0 | 0.00 | 0.00 | 0.00 | 47 | 1009.7 |
| 20260503205327 | 56 | 282 | 0.9 | 3.5 | 0.00 | 0.00 | 0.00 | 48 | 1009.6 |
| 20260503204827 | 56 | 7 | 1.7 | 2.6 | 0.00 | 0.00 | 0.00 | 47 | 1009.7 |
| 20260503204327 | 56 | 326 | 0.9 | 1.7 | 0.00 | 0.00 | 0.00 | 47 | 1009.8 |
| 20260503203827 | 56 | 46 | 1.7 | 4.3 | 0.00 | 0.00 | 0.00 | 46 | 1009.7 |
| 20260503203327 | 57 | 252 | 3.5 | 7.8 | 0.00 | 0.00 | 0.00 | 45 | 1009.5 |
| 20260503202827 | 56 | 228 | 2.6 | 7.0 | 0.00 | 0.00 | 0.00 | 45 | 1009.2 |
| 20260503202328 | 55 | 276 | 3.5 | 6.1 | 0.00 | 0.00 | 0.00 | 47 | 1009.5 |
| 20260503201827 | 54 | 278 | 1.7 | 2.6 | 0.00 | 0.00 | 0.00 | 47 | 1010.0 |
| 20260503201327 | 54 | 334 | 2.6 | 5.2 | 0.00 | 0.00 | 0.00 | 47 | 1010.2 |
| 20260503200827 | 54 | 263 | 2.6 | 5.2 | 0.00 | 0.00 | 0.00 | 46 | 1010.3 |
| 20260503200328 | 54 | 320 | 0.9 | 1.7 | 0.00 | 0.00 | 0.00 | 47 | 1010.4 |
| 20260503195827 | 54 | 261 | 1.7 | 3.5 | 0.00 | 0.00 | 0.00 | 47 | 1010.4 |
| 20260503195327 | 54 | 242 | 1.7 | 4.3 | 0.00 | 0.00 | 0.00 | 46 | 1010.4 |
| 20260503194827 | 54 | 293 | 1.7 | 3.5 | 0.00 | 0.00 | 0.00 | 47 | 1010.4 |
| 20260503194327 | 54 | 236 | 3.5 | 8.7 | 0.00 | 0.00 | 0.00 | 46 | 1010.6 |
| 20260503193829 | 55 | 280 | 0.9 | 1.7 | 0.00 | 0.00 | 0.00 | 46 | 1010.6 |
| 20260503193327 | 55 | 293 | 0.9 | 1.7 | 0.00 | 0.00 | 0.00 | 46 | 1010.7 |
| 20260503192827 | 55 | 210 | 3.5 | 6.1 | 0.00 | 0.00 | 0.00 | 43 | 1010.7 |
| 20260503192327 | 56 | 261 | 3.5 | 6.1 | 0.00 | 0.00 | 0.00 | 44 | 1010.7 |
| 20260503191827 | 56 | 228 | 3.5 | 5.2 | 0.00 | 0.00 | 0.00 | 42 | 1010.4 |
| 20260503191327 | 56 | 11 | 1.7 | 4.3 | 0.00 | 0.00 | 0.00 | 41 | 1010.0 |
| 20260503190829 | 56 | 220 | 3.5 | 6.1 | 0.00 | 0.00 | 0.00 | 43 | 1010.6 |
| 20260503190327 | 57 | 267 | 4.3 | 7.0 | 0.00 | 0.00 | 0.00 | 41 | 1010.6 |
| 20260503185828 | 58 | 244 | 4.3 | 6.1 | 0.00 | 0.00 | 0.00 | 40 | 1010.2 |
| 20260503185328 | 57 | 345 | 2.6 | 4.3 | 0.00 | 0.00 | 0.00 | 40 | 1010.0 |
| 20260503184827 | 57 | 17 | 2.6 | 5.2 | 0.00 | 0.00 | 0.00 | 39 | 1010.5 |
| 20260503184327 | 57 | 341 | 1.7 | 4.3 | 0.00 | 0.00 | 0.00 | 42 | 1010.2 |
| 20260503183827 | 57 | 317 | 1.7 | 3.5 | 0.00 | 0.00 | 0.00 | 40 | 1010.7 |
| 20260503183327 | 57 | 257 | 1.7 | 3.5 | 0.00 | 0.00 | 0.00 | 40 | 1010.7 |
| 20260503182827 | 57 | 264 | 3.5 | 6.1 | 0.00 | 0.00 | 0.00 | 41 | 1011.0 |
| 20260503182327 | 58 | 21 | 1.7 | 2.6 | 0.00 | 0.00 | 0.00 | 38 | 1010.7 |
| 20260503181827 | 57 | 256 | 2.6 | 3.5 | 0.00 | 0.00 | 0.00 | 40 | 1010.6 |
| 20260503181327 | 56 | 256 | 2.6 | 4.3 | 0.00 | 0.00 | 0.00 | 43 | 1010.6 |
| 20260503180827 | 56 | 11 | 2.6 | 3.5 | 0.00 | 0.00 | 0.00 | 39 | 1010.6 |
| 20260503180327 | 56 | 40 | 1.7 | 2.6 | 0.00 | 0.00 | 0.00 | 39 | 1010.6 |
| 20260503175827 | 56 | 18 | 1.7 | 3.5 | 0.00 | 0.00 | 0.00 | 39 | 1010.8 |
| 20260503175327 | 55 | 319 | 1.7 | 4.3 | 0.00 | 0.00 | 0.00 | 40 | 1011.1 |
| 20260503174828 | 55 | 291 | 2.6 | 4.3 | 0.00 | 0.00 | 0.00 | 40 | 1011.1 |
| 20260503174327 | 55 | 230 | 6.1 | 12.2 | 0.00 | 0.00 | 0.00 | 39 | 1011.3 |
| 20260503173827 | 55 | 304 | 1.7 | 3.5 | 0.00 | 0.00 | 0.00 | 42 | 1011.2 |
| 20260503173327 | 56 | 234 | 1.7 | 4.3 | 0.00 | 0.00 | 0.00 | 41 | 1011.1 |
| 20260503172827 | 55 | 10 | 1.7 | 3.5 | 0.00 | 0.00 | 0.00 | 38 | 1011.2 |
| 20260503172330 | 55 | 28 | 1.7 | 3.5 | 0.00 | 0.00 | 0.00 | 39 | 1011.2 |
| 20260503171827 | 55 | 306 | 2.6 | 4.3 | 0.00 | 0.00 | 0.00 | 40 | 1011.3 |
| 20260503171327 | 55 | 224 | 1.7 | 4.3 | 0.00 | 0.00 | 0.00 | 40 | 1011.2 |
| 20260503170827 | 55 | 13 | 1.7 | 3.5 | 0.00 | 0.00 | 0.00 | 41 | 1011.2 |
| 20260503170329 | 55 | 273 | 2.6 | 4.3 | 0.00 | 0.00 | 0.00 | 39 | 1011.4 |
| 20260503150828 | 51 | 357 | 2.6 | 5.2 | 0.00 | 0.00 | 0.00 | 46 | 1012.6 |
| 20260503150327 | 51 | 2 | 1.7 | 2.6 | 0.00 | 0.00 | 0.00 | 47 | 1012.3 |
| 20260503131327 | 48 | 39 | 1.7 | 3.5 | 0.00 | 0.00 | 0.00 | 62 | 1013.0 |
| 20260503130827 | 48 | 266 | 1.7 | 4.3 | 0.00 | 0.00 | 0.00 | 62 | 1013.0 |
| 20260503130327 | 48 | 307 | 1.7 | 5.2 | 0.00 | 0.00 | 0.00 | 60 | 1013.0 |
| 20260503110827 | 40 | 305 | 0.9 | 2.6 | 0.00 | 0.00 | 0.00 | 78 | 1013.0 |
| 20260503110327 | 39 | 223 | 0.9 | 1.7 | 0.00 | 0.00 | 0.00 | 80 | 1013.1 |
| 20260503090327 | 39 | 208 | 0.9 | 2.6 | 0.00 | 0.00 | 0.00 | 81 | 1012.9 |
| 20260503081329 | 39 | 221 | 1.7 | 2.6 | 0.00 | 0.00 | 0.00 | 80 | 1013.0 |
| 20260503080827 | 39 | 244 | 0.9 | 3.5 | 0.00 | 0.00 | 0.00 | 80 | 1013.0 |
| 20260503080327 | 39 | 262 | 1.7 | 5.2 | 0.00 | 0.00 | 0.00 | 80 | 1012.9 |
| 20260503072827 | 39 | 263 | 1.7 | 2.6 | 0.00 | 0.00 | 0.00 | 82 | 1012.9 |